Regional Weather Roundup
Issued by NWS

Home | Current Version | Previous Version | Graphics & Text | Print | Product List | Glossary On
Versions: 1 2 3 4 5 6 7 8 9 10 11 12 13 14 15 16 17 18 19 20 21 22 23 24 25 26 27 28 29 30 31 32 33 34 35 36 37 38 39 40 41 42 43 44 45 46 47 48 49 50
000
ASUS44 KMEG 140000
RWRTN
TENNESSEE HOURLY STATE WEATHER ROUNDUP
NATIONAL WEATHER SERVICE MEMPHIS TN
700 PM CDT SUN JUL 13 2014

TNZ002-004-019-021-049-052-054-088>092-140100-
WEST TENNESSEE

CITY           SKY/WX    TMP DP  RH WIND       PRES   REMARKS
MEMPHIS INTL   MOSUNNY   89  73  59 SW7       29.99R HX  97
NWS MEMPHIS      N/A     89 N/A N/A MISG        N/A
JACKSON        SUNNY     89  73  59 SW6       29.99S HX  97
DYERSBURG      SUNNY     90  70  51 SW7       29.98R HX  95
UNION CITY     SUNNY     90  73  58 CALM      29.95F HX  98
PARIS          SUNNY     88  73  62 SW7       29.98S HX  96
LEXINGTON      SUNNY     88  73  62 SW5       29.99S HX  96
SAVANNAH       MOSUNNY   90  73  58 W3        30.01S HX  98
$$

TNZ008-025-027-028-033-062-065-066-140100-
NORTH MIDDLE TENNESSEE

CITY           SKY/WX    TMP DP  RH WIND       PRES   REMARKS
NASHVILLE      MOSUNNY   89  70  53 SW8       30.00R HX  94
CLARKSVILLE    SUNNY     89  71  55 SW12      29.97S HX  95
COOKEVILLE     MOSUNNY   88  73  62 CALM      30.02S HX  96
CROSSVILLE     PTCLDY    81  71  71 CALM      30.09R
$$

TNZ061-075-076-078-094-096-097-140100-
SOUTH MIDDLE TENNESSEE

CITY           SKY/WX    TMP DP  RH WIND       PRES   REMARKS
FAYETTEVILLE   SUNNY     86  70  58 SW5       30.04S HX  90
TULLAHOMA      SUNNY     84  72  65 SW6       30.05S
WINCHESTER     SUNNY     88  72  58 W5        30.05R HX  94
MCMINNVILLE    SUNNY     88  73  62 SW7       30.03S HX  96
COLUMBIA       SUNNY     90  73  58 W5        30.00S HX  98
SHELBYVILLE    SUNNY     88  73  62 S10       30.03R HX  96
$$

TNZ017-018-042-046-047-140100-
NORTHEAST TENNESSEE

CITY           SKY/WX    TMP DP  RH WIND       PRES   REMARKS
TRI CITIES     MOCLDY    84  67  56 NW6       30.06S
ELIZABETHTON   PTCLDY    81  72  74 CALM      30.07R
$$

TNZ012-013-036-069-073-074-140100-
CENTRAL EAST TENNESSEE

CITY           SKY/WX    TMP DP  RH WIND       PRES   REMARKS
KNOXVILLE      CLOUDY    86  70  58 SW9       30.03S HX  90
OAK RIDGE      MOCLDY    85  74  69 VRB3      30.04S HX  92
GATLINBURG     CLEAR     82  70  65 W3        30.04R
$$

TNZ083-085-099-140100-
SOUTHEAST TENNESSEE

CITY           SKY/WX    TMP DP  RH WIND       PRES   REMARKS
CHATTANOOGA    MOCLDY    87  68  52 SW3       30.03S HX  90
$$

SKY/WX REPORTED AS FAIR MEANS FEW OR NO CLOUDS BELOW
12 THOUSAND FEET.



USA.gov is the U.S. government's official web portal to all federal, state and local government web resources and services.